Weather History for Ostrava / Mosnov, Czech Republic

Change the Weather History Date:

Friday, August 22, 2014

  Actual Average Record
Temperature  
Mean Temperature 56 °F -  
Max Temperature 68 °F 69 °F - ()
Min Temperature 44 °F 49 °F - ()
Degree Days  
Heating Degree Days 9    
Growing Degree Days 6 (Base 50)    
Moisture  
Dew Point 50 °F    
Average Humidity 76    
Maximum Humidity 97    
Minimum Humidity 43    
Precipitation  
Precipitation 0.00 in 0.09 in - ()
Sea Level Pressure  
Sea Level Pressure 30.04 in    
Wind  
Wind Speed 5 mph ()    
Max Wind Speed 14 mph    
Max Gust Speed -    
Visibility 8.9 miles    
Events Fog    
T = Trace of Precipitation, MM = Missing Value Source: Averaged Metar Reports

Daily Weather History Graph

Daily Weather History Graph

Search for Another Location

Airport:

Trip Planner

Search our weather history database for the weather conditions in past years. The results will help you decide how hot, cold, wet, or windy it might be!

Date:

Astronomy

Aug. 22, 2014 Rise Set
Actual Time 5:47 AM CEST 7:51 PM CEST
Civil Twilight 5:13 AM CEST 8:26 PM CEST
Nautical Twilight 4:29 AM CEST 9:09 PM CEST
Astronomical Twilight 3:41 AM CEST 9:57 PM CEST
Moon 2:46 AM CEST (8/22) 5:54 PM CEST (8/22)
Length of Visible Light 15h 13m
Length of Day
14h 04m
Waning Crescent, 9% of the Moon is Illuminated
Aug 22
Waning Crescent
Aug 25
New
Sep 2
First Quarter
Sep 9
Full
Sep 16
Last Quarter

Hourly Weather History & Observations

Time (CEST) Temp. Windchill Dew Point Humidity Pressure Visibility Wind Dir Wind Speed Gust Speed Precip Events Conditions
12:00 AM 50 °F - 48 °F 92% 30.09 in 12 mi SSW 4.5 mph - -  
12:00 AM 51.8 °F - 50.0 °F 94% 30.06 in - SSW 4.6 mph - N/A   Clear
12:30 AM 50.0 °F - 48.2 °F 94% 30.06 in - SSW 3.5 mph - N/A   Clear
1:00 AM 50 °F - 49 °F 93% 30.09 in 9 mi SSW 2.2 mph - -  
1:00 AM 50.0 °F - 48.2 °F 94% 30.06 in - South 1.2 mph - N/A   Clear
1:30 AM 50.0 °F - 48.2 °F 94% 30.06 in - South 3.5 mph - N/A   Clear
2:00 AM 49 °F - 48 °F 97% 30.09 in 7 mi South 4.5 mph - -  
2:00 AM 50.0 °F - 48.2 °F 94% 30.06 in - South 3.5 mph - N/A   Clear
2:30 AM 50.0 °F - 48.2 °F 94% 30.06 in - Variable 2.3 mph - N/A   Clear
3:00 AM 49 °F - 47 °F 91% 30.09 in 7 mi South 4.5 mph - -  
3:00 AM 50.0 °F - 48.2 °F 94% 30.06 in - South 3.5 mph - N/A   Clear
3:30 AM 50.0 °F - 48.2 °F 94% 30.06 in - South 3.5 mph - N/A   Clear
4:00 AM 48 °F - 47 °F 94% 30.09 in 6 mi South 4.5 mph - - Fog Light Fog
4:00 AM 48.2 °F - 46.4 °F 93% 30.06 in 6.2 mi South 3.5 mph - N/A Fog Unknown
4:30 AM 48.2 °F - 46.4 °F 93% 30.06 in 5.0 mi South 4.6 mph - N/A Fog Fog
5:00 AM 47 °F - 46 °F 94% 30.09 in 5 mi South 4.5 mph - - Fog Light Fog
5:00 AM 48.2 °F - 46.4 °F 93% 30.06 in 5.0 mi South 4.6 mph - N/A Fog Fog
5:30 AM 48.2 °F - 46.4 °F 93% 30.06 in 3.7 mi SSW 2.3 mph - N/A Fog Fog
5:45 AM 46.4 °F 45.2 °F 44.6 °F 93% 30.06 in 3.1 mi SSW 3.5 mph - N/A Fog Unknown
6:00 AM 46 °F - 45 °F 96% 30.09 in 1 mi SSW 2.2 mph - - Fog Light Fog
6:00 AM 46.4 °F - 44.6 °F 93% 30.06 in 3.1 mi SSW 2.3 mph - N/A Fog Partly Cloudy
6:30 AM 44.6 °F 43.1 °F 42.8 °F 93% 30.06 in 3.1 mi SW 3.5 mph - N/A Fog Unknown
7:00 AM 48 °F - 47 °F 96% 30.09 in 4 mi SSW 2.2 mph - - Fog Light Fog
7:30 AM 50.0 °F - 48.2 °F 94% 30.06 in 5.6 mi SW 5.8 mph - N/A   Unknown
8:00 AM 52 °F - 50 °F 92% 30.09 in 7 mi SW 4.5 mph - -   Scattered Clouds
8:00 AM 51.8 °F - 50.0 °F 94% 30.06 in - SW 4.6 mph - N/A   Clear
8:30 AM 53.6 °F - 50.0 °F 88% 30.06 in - WSW 3.5 mph - N/A   Clear
9:00 AM 56 °F - 52 °F 80% 30.08 in 12 mi 4.5 mph - -   Scattered Clouds
9:00 AM 55.4 °F - 51.8 °F 88% 30.06 in - WSW 4.6 mph - N/A   Clear
9:30 AM 59.0 °F - 53.6 °F 82% 30.06 in - SW 3.5 mph - N/A   Clear
10:00 AM 63 °F - 53 °F 60% 30.06 in 19 mi 4.5 mph - -   Scattered Clouds
10:00 AM 62.6 °F - 53.6 °F 72% 30.06 in 6.2 mi SW 4.6 mph - N/A   Partly Cloudy
10:30 AM 64.4 °F - 51.8 °F 64% 30.06 in 6.2 mi SW 6.9 mph - N/A   Partly Cloudy
11:00 AM 63 °F - 51 °F 55% 30.06 in 19 mi WSW 8.9 mph - -   Partly Cloudy
11:00 AM 62.6 °F - 50.0 °F 63% 30.06 in 6.2 mi WSW 9.2 mph - N/A   Scattered Clouds
11:30 AM 62.6 °F - 53.6 °F 72% 30.06 in 6.2 mi West 8.1 mph - N/A   Scattered Clouds
12:00 PM 64 °F - 53 °F 57% 30.05 in 25 mi West 6.7 mph - -   Partly Cloudy
12:00 PM 62.6 °F - 53.6 °F 72% 30.06 in 6.2 mi West 6.9 mph - N/A   Scattered Clouds
12:30 PM 64.4 °F - 53.6 °F 68% 30.04 in 6.2 mi West 5.8 mph - N/A   Partly Cloudy
1:00 PM 65 °F - 53 °F 56% 30.04 in 25 mi WSW 6.7 mph - -   Partly Cloudy
1:00 PM 66.2 °F - 53.6 °F 64% 30.04 in 6.2 mi WSW 6.9 mph - N/A   Scattered Clouds
1:30 PM 66.2 °F - 53.6 °F 64% 30.04 in 6.2 mi SW 4.6 mph - N/A   Scattered Clouds
2:00 PM 65 °F - 52 °F 52% 30.04 in 9 mi SW 8.9 mph - -   Scattered Clouds
2:00 PM 64.4 °F - 51.8 °F 64% 30.04 in 6.2 mi SSW 9.2 mph - N/A   Scattered Clouds
2:30 PM 66.2 °F - 51.8 °F 60% 30.04 in 6.2 mi SW 9.2 mph - N/A   Scattered Clouds
3:00 PM 68 °F - 53 °F 48% 30.02 in 16 mi SW 11.2 mph - -   Partly Cloudy
3:00 PM 68.0 °F - 51.8 °F 56% 30.04 in 6.2 mi SSW 9.2 mph - N/A   Scattered Clouds
3:30 PM 68.0 °F - 53.6 °F 60% 30.04 in 6.2 mi SSW 11.5 mph - N/A   Partly Cloudy
4:00 PM 68 °F - 51 °F 43% 30.01 in 16 mi SSW 13.4 mph - -   Partly Cloudy
4:00 PM 68.0 °F - 51.8 °F 56% 30.01 in 6.2 mi SW 13.8 mph - N/A   Partly Cloudy
4:30 PM 68.0 °F - 51.8 °F 56% 30.01 in 6.2 mi SSW 13.8 mph - N/A   Partly Cloudy
5:00 PM 67 °F - 50 °F 45% 29.99 in 19 mi South 11.2 mph - -   Partly Cloudy
5:00 PM 68.0 °F - 51.8 °F 56% 30.01 in 6.2 mi South 11.5 mph - N/A   Partly Cloudy
5:30 PM 68.0 °F - 51.8 °F 56% 30.01 in 6.2 mi South 11.5 mph - N/A   Partly Cloudy
6:00 PM 67 °F - 50 °F 44% 29.99 in 19 mi SW 13.4 mph - -   Scattered Clouds
6:00 PM 66.2 °F - 50.0 °F 56% 30.01 in - SSW 12.7 mph - N/A   Clear
6:30 PM 66.2 °F - 50.0 °F 56% 29.98 in 6.2 mi South 11.5 mph - N/A   Partly Cloudy
7:00 PM 65 °F - 51 °F 49% 29.98 in 19 mi SSW 11.2 mph - -   Scattered Clouds
7:30 PM 60.8 °F - 51.8 °F 72% 29.98 in - SW 10.4 mph - N/A   Clear
8:00 PM 58 °F - 51 °F 70% 30.01 in 19 mi WSW 6.7 mph - -   Scattered Clouds
8:00 PM 59.0 °F - 51.8 °F 77% 30.01 in 6.2 mi SW 8.1 mph - N/A   Partly Cloudy
8:30 PM 60.8 °F - 53.6 °F 77% 30.01 in 6.2 mi West 3.5 mph - N/A   Partly Cloudy
9:00 PM 60 °F - 52 °F 68% 30.00 in 19 mi SSE 4.5 mph - -   Scattered Clouds
9:30 PM 59.0 °F - 51.8 °F 77% 30.01 in - South 3.5 mph - N/A   Clear
10:00 PM 58 °F - 51 °F 71% 30.01 in 19 mi South 4.5 mph - -  
10:00 PM 59.0 °F - 51.8 °F 77% 30.01 in - South 3.5 mph - N/A   Clear
10:30 PM 57.2 °F - 51.8 °F 82% 30.01 in - South 4.6 mph - N/A   Clear
11:00 PM 56 °F - 52 °F 82% 30.01 in 19 mi 4.5 mph - -   Partly Cloudy
11:00 PM 55.4 °F - 51.8 °F 88% 30.01 in - SSW 3.5 mph - N/A   Clear
11:30 PM 55.4 °F - 51.8 °F 88% 30.01 in - SW 3.5 mph - N/A   Clear